Volver al catálogo

CZ-6A DEB

ActivoPO
NORAD 54412·DEBRIS·🇨🇳 China

Lanzado Nov 11, 2022 desde Taiyuan Satellite Launch Center

Loading…

Próximos Pases (próximas 24 horas)

TLE

ActualizadoSource: Space-Track

Época: Sep 14, 2026, 13:43 UTC

1 54412U 22151EL  26257.57206597  .00014205  00000-0  13277-2 0  9994
2 54412  98.6461  14.6136 0086170 179.6108 180.5190 14.91446902205884

Sigue CZ-6A DEB en tiempo real con AllMySat

Download on the App Store